This demonstration page uses our WeatherBlox Daily Observations layout. Learn more.

Left ArrowRight Arrow

Hourly Observations for March 30, 2021

Temp ( °F °C ) Dew Point ( °F °C ) Humidity (%) Winds ( mph kmh ) Pressure ( in mb ) Visibility ( mi km ) Precip ( " mm )
12:54 am 00:54 Clear 52 11.1 23 -5 32 32 N 28 44 29.64 1004 10 16 0.00 0.00
1:54 am 01:54 Partly Cloudy 52 11.1 20 -6.7 28 28 N 24 39 29.70 1006 10 16 0.00 0.00
2:54 am 02:54 Mostly Cloudy 50 10 17 -8.3 27 27 N 35 56 29.76 1008 10 16 0.00 0.00
3:54 am 03:54 Cloudy 47 8.3 14 -10 26 26 N 21 33 29.81 1010 10 16 0.00 0.00
4:54 am 04:54 Cloudy 45 7.2 12 -11.1 26 26 N 26 43 29.83 1010 10 16 0.00 0.00
5:54 am 05:54 Mostly Cloudy 42 5.6 12 -11.1 29 29 N 18 30 29.86 1011 10 16 0.00 0.00
6:54 am 06:54 Clear 41 5 11 -11.7 29 29 NNW 15 24 29.90 1013 10 16 0.00 0.00
7:54 am 07:54 Sunny 40 4.4 14 -10 35 35 NNW 15 24 29.94 1014 10 16 0.00 0.00
8:54 am 08:54 Sunny 43 6.1 13 -10.6 29 29 NNW 17 28 29.97 1015 10 16 0.00 0.00
9:54 am 09:54 Sunny 47 8.3 12 -11.1 24 24 NNW 24 39 29.98 1015 10 16 0.00 0.00
10:54 am 10:54 Mostly Sunny 48 8.9 12 -11.1 23 23 NW 26 43 30.01 1016 10 16 0.00 0.00
11:54 am 11:54 Sunny 49 9.4 10 -12.2 21 21 NNW 25 41 30.04 1017 10 16 0.00 0.00
12:54 pm 12:54 Mostly Sunny 51 10.6 10 -12.2 19 19 NNW 18 30 30.04 1017 10 16 0.00 0.00
1:54 pm 13:54 Sunny 52 11.1 9 -12.8 17 17 NNW 26 43 30.04 1017 10 16 0.00 0.00
2:54 pm 14:54 Mostly Sunny 53 11.7 12 -11.1 19 19 NW 20 31 30.04 1017 10 16 0.00 0.00
3:54 pm 15:54 Mostly Cloudy 51 10.6 9 -12.8 18 18 NNW 23 37 30.05 1018 10 16 0.00 0.00
4:54 pm 16:54 Mostly Cloudy 51 10.6 10 -12.2 19 19 NNW 20 31 30.08 1019 10 16 0.00 0.00
5:54 pm 17:54 Sunny 51 10.6 11 -11.7 20 20 NNW 14 22 30.09 1019 10 16 0.00 0.00
6:54 pm 18:54 Sunny 49 9.4 9 -12.8 20 20 NNW 15 24 30.12 1020 10 16 0.00 0.00
7:54 pm 19:54 Clear 47 8.3 9 -12.8 21 21 NNW 13 20 30.15 1021 10 16 0.00 0.00
8:54 pm 20:54 Clear 42 5.6 10 -12.2 27 27 NNW 7 11 30.19 1022 10 16 0.00 0.00
9:54 pm 21:54 Clear 39 3.9 12 -11.1 33 33 N 3 6 30.22 1023 10 16 0.00 0.00
10:54 pm 22:54 Clear 38 3.3 17 -8.3 43 43 WNW 5 7 30.24 1024 10 16 0.00 0.00
11:54 pm 23:54 Clear 27 -2.8 16 -8.9 63 63 NW 3 6 30.27 1025 10 16 0.00 0.00

Powered by AerisWeather